Retour au catalogue

FENGYUN 1C DEB

ActifLEO
NORAD 31483·DEBRIS·🇨🇳 China

Lancé May 10, 1999 depuis Taiyuan Satellite Launch Center

Loading…

Prochains Passages (prochaines 24 heures)

TLE

FraisSource: Space-Track

Époque: Sep 14, 2026, 02:53 UTC

1 31483U 99025BVX 26257.12075884  .00004111  00000-0  18822-2 0  9991
2 31483 102.5120 323.3076 0117725 253.3510 137.0908 14.18705421986080

Suivez FENGYUN 1C DEB en temps réel avec AllMySat

Download on the App Store